| time (UTC) | temp F | wind direction | speed MPH | gust MPH | rain 1hr in | rain 24hr in | rain mn in | humidity % | barometer mb |
| 20260503021531 | 67 | 0 | 0.0 | 0.0 | 0.00 | 0.02 | 0.00 | 71 | 1015.3 |
| 20260503015731 | 68 | 0 | 0.0 | 0.0 | 0.00 | 0.04 | 0.00 | 67 | 1015.3 |
| 20260503013931 | 69 | 0 | 0.0 | 0.0 | 0.00 | 0.05 | 0.00 | 63 | 1014.8 |
| 20260503012131 | 70 | 0 | 0.0 | 0.0 | 0.00 | 0.05 | 0.00 | 61 | 1014.8 |
| 20260503011231 | 70 | 0 | 0.0 | 0.0 | 0.00 | 0.06 | 0.00 | 59 | 1014.8 |
| 20260503010331 | 71 | 0 | 0.0 | 0.0 | 0.00 | 0.08 | 0.00 | 58 | 1014.6 |
| 20260503005431 | 72 | 0 | 0.0 | 0.0 | 0.00 | 0.08 | 0.00 | 59 | 1014.3 |
| 20260503002732 | 73 | 0 | 0.0 | 0.0 | 0.00 | 0.09 | 0.00 | 56 | 1014.2 |
| 20260503000032 | 74 | 23 | 3.0 | 10.0 | 0.00 | 0.15 | 0.00 | 53 | 1014.0 |
| 20260502234231 | 75 | 21 | 5.0 | 12.0 | 0.00 | 0.21 | 0.00 | 53 | 1013.9 |
| 20260502233331 | 75 | 33 | 2.0 | 10.0 | 0.00 | 0.22 | 0.00 | 52 | 1013.8 |
| 20260502232431 | 75 | 13 | 5.0 | 13.0 | 0.00 | 0.23 | 0.00 | 54 | 1013.8 |
| 20260502224831 | 76 | 12 | 5.0 | 19.0 | 0.00 | 0.27 | 0.00 | 52 | 1013.7 |
| 20260502223931 | 76 | 15 | 2.0 | 9.0 | 0.00 | 0.27 | 0.00 | 59 | 1013.8 |
| 20260502223031 | 76 | 17 | 5.0 | 13.0 | 0.00 | 0.27 | 0.00 | 52 | 1013.8 |
| 20260502222132 | 76 | 20 | 6.0 | 15.0 | 0.00 | 0.27 | 0.00 | 53 | 1013.9 |
| 20260502221231 | 77 | 16 | 4.0 | 15.0 | 0.00 | 0.27 | 0.00 | 52 | 1013.9 |
| 20260502220332 | 76 | 43 | 3.0 | 10.0 | 0.00 | 0.28 | 0.00 | 53 | 1013.9 |
| 20260502213631 | 76 | 16 | 7.0 | 15.0 | 0.00 | 0.49 | 0.00 | 51 | 1014.1 |
| 20260502212732 | 76 | 10 | 5.0 | 15.0 | 0.00 | 0.54 | 0.00 | 53 | 1014.1 |
| 20260502202431 | 76 | 8 | 6.0 | 14.0 | 0.00 | 0.65 | 0.00 | 54 | 1014.8 |
| 20260502201532 | 76 | 5 | 5.0 | 12.0 | 0.00 | 0.73 | 0.00 | 59 | 1014.8 |
| 20260502200631 | 76 | 13 | 3.0 | 10.0 | 0.00 | 0.73 | 0.00 | 57 | 1014.8 |
| 20260502195731 | 75 | 37 | 3.0 | 14.0 | 0.00 | 0.74 | 0.00 | 57 | 1014.8 |
| 20260502194831 | 75 | 21 | 5.0 | 14.0 | 0.00 | 0.76 | 0.00 | 60 | 1015.0 |
| 20260502193931 | 75 | 21 | 6.0 | 14.0 | 0.00 | 0.83 | 0.00 | 56 | 1015.3 |
| 20260502193031 | 75 | 24 | 4.0 | 12.0 | 0.00 | 0.84 | 0.00 | 58 | 1015.3 |
| 20260502192131 | 75 | 15 | 4.0 | 13.0 | 0.00 | 0.86 | 0.00 | 57 | 1015.4 |
| 20260502191231 | 74 | 29 | 6.0 | 16.0 | 0.00 | 0.86 | 0.00 | 56 | 1015.4 |
| 20260502185431 | 74 | 17 | 8.0 | 19.0 | 0.00 | 0.88 | 0.00 | 56 | 1015.7 |
| 20260502184531 | 74 | 19 | 8.0 | 16.0 | 0.00 | 1.12 | 0.00 | 59 | 1015.7 |
| 20260502183631 | 74 | 32 | 4.0 | 16.0 | 0.00 | 1.27 | 0.00 | 59 | 1015.8 |
| 20260502181831 | 73 | 25 | 5.0 | 19.0 | 0.00 | 1.33 | 0.00 | 60 | 1015.8 |
| 20260502180931 | 73 | 20 | 7.0 | 16.0 | 0.00 | 1.48 | 0.00 | 61 | 1016.0 |
| 20260502163931 | 69 | 19 | 9.0 | 17.0 | 0.00 | 1.62 | 0.00 | 67 | 1016.3 |
| 20260502162131 | 68 | 15 | 5.0 | 13.0 | 0.00 | 1.76 | 0.00 | 71 | 1016.3 |
| 20260502161231 | 68 | 15 | 6.0 | 15.0 | 0.00 | 1.83 | 0.00 | 73 | 1016.3 |
| 20260502160331 | 67 | 13 | 7.0 | 13.0 | 0.00 | 1.88 | 0.00 | 73 | 1016.3 |
| 20260502130331 | 55 | 20 | 4.0 | 10.0 | 0.00 | 1.95 | 0.00 | 99 | 1014.8 |
| 20260502123631 | 54 | 0 | 0.0 | 0.0 | 0.00 | 1.96 | 0.00 | 99 | 1014.4 |
| 20260502121830 | 54 | 19 | 0.0 | 5.0 | 0.00 | 1.97 | 0.00 | 99 | 1014.2 |
| 20260502115131 | 54 | 5 | 1.0 | 7.0 | 0.00 | 1.97 | 0.00 | 98 | 1014.2 |
| 20260502114230 | 54 | 0 | 0.0 | 0.0 | 0.00 | 1.97 | 0.00 | 98 | 1014.2 |
| 20260502113331 | 54 | 6 | 0.0 | 5.0 | 0.00 | 1.97 | 0.00 | 98 | 1013.8 |
| 20260502112431 | 54 | 6 | 0.0 | 5.0 | 0.00 | 1.97 | 0.00 | 98 | 1013.8 |
| 20260502111530 | 54 | 6 | 1.0 | 6.0 | 0.00 | 1.97 | 0.00 | 98 | 1013.8 |
| 20260502110632 | 54 | 8 | 2.0 | 8.0 | 0.00 | 1.97 | 0.00 | 98 | 1013.4 |
| 20260502105731 | 54 | 13 | 1.0 | 8.0 | 0.00 | 1.97 | 0.00 | 98 | 1013.4 |
| 20260502104831 | 54 | 10 | 3.0 | 7.0 | 0.00 | 1.97 | 0.00 | 98 | 1013.2 |
| 20260502103930 | 54 | 9 | 4.0 | 11.0 | 0.00 | 1.97 | 0.00 | 98 | 1013.2 |
| 20260502103030 | 54 | 9 | 3.0 | 9.0 | 0.00 | 1.97 | 0.00 | 98 | 1013.2 |
| 20260502102130 | 54 | 7 | 1.0 | 6.0 | 0.00 | 1.97 | 0.00 | 98 | 1012.8 |
| 20260502101231 | 54 | 2 | 1.0 | 5.0 | 0.00 | 1.97 | 0.00 | 98 | 1012.8 |
| 20260502100331 | 54 | 0 | 0.0 | 0.0 | 0.00 | 1.97 | 0.00 | 98 | 1012.4 |
| 20260502090931 | 55 | 14 | 2.0 | 7.0 | 0.00 | 1.97 | 0.00 | 99 | 1011.7 |
| 20260502071230 | 55 | 20 | 5.0 | 12.0 | 0.00 | 1.97 | 0.00 | 100 | 1011.7 |
| 20260502065430 | 56 | 21 | 6.0 | 12.0 | 0.00 | 1.97 | 0.00 | 100 | 1011.7 |
| 20260502064530 | 56 | 24 | 5.0 | 12.0 | 0.00 | 1.97 | 0.00 | 100 | 1011.7 |
| 20260502063630 | 55 | 20 | 7.0 | 14.0 | 0.00 | 1.97 | 0.00 | 100 | 1011.5 |
| 20260502062731 | 56 | 29 | 4.0 | 13.0 | 0.00 | 1.97 | 0.00 | 100 | 1011.5 |
| 20260502061831 | 56 | 26 | 6.0 | 15.0 | 0.00 | 1.97 | 0.00 | 100 | 1011.4 |
| 20260502060930 | 56 | 25 | 4.0 | 13.0 | 0.00 | 1.97 | 0.00 | 100 | 1011.2 |
| 20260502060032 | 56 | 16 | 3.0 | 10.0 | 0.00 | 1.97 | 0.00 | 100 | 1011.2 |
| 20260502055131 | 56 | 36 | 4.0 | 12.0 | 0.00 | 1.97 | 0.00 | 100 | 1011.3 |
| 20260502054230 | 56 | 30 | 4.0 | 13.0 | 0.00 | 1.97 | 0.00 | 100 | 1011.3 |
| 20260502052430 | 56 | 31 | 6.0 | 13.0 | 0.00 | 1.97 | 0.00 | 100 | 1011.2 |
| 20260502051530 | 56 | 31 | 6.0 | 14.0 | 0.00 | 1.97 | 0.00 | 100 | 1011.2 |
| 20260502050631 | 56 | 25 | 5.0 | 14.0 | 0.00 | 1.97 | 0.00 | 100 | 1011.2 |
| 20260502045731 | 56 | 30 | 6.0 | 14.0 | 0.00 | 1.97 | 1.97 | 100 | 1011.2 |
| 20260502044830 | 56 | 25 | 6.0 | 14.0 | 0.00 | 1.97 | 1.97 | 100 | 1011.5 |
| 20260502043930 | 57 | 29 | 4.0 | 11.0 | 0.00 | 1.97 | 1.97 | 100 | 1011.4 |
| 20260502043030 | 56 | 21 | 7.0 | 14.0 | 0.00 | 1.97 | 1.97 | 100 | 1011.4 |
| 20260502042131 | 57 | 13 | 6.0 | 12.0 | 0.00 | 1.97 | 1.97 | 100 | 1011.2 |
| 20260502040331 | 57 | 14 | 7.0 | 14.0 | 0.01 | 1.97 | 1.97 | 100 | 1011.3 |
| 20260502035431 | 57 | 15 | 5.0 | 13.0 | 0.01 | 1.97 | 1.97 | 100 | 1011.0 |
| 20260502034530 | 57 | 26 | 4.0 | 10.0 | 0.01 | 1.97 | 1.97 | 100 | 1011.0 |
| 20260502033630 | 57 | 21 | 7.0 | 15.0 | 0.01 | 1.97 | 1.97 | 100 | 1010.8 |
| 20260502032731 | 57 | 21 | 7.0 | 14.0 | 0.01 | 1.97 | 1.97 | 100 | 1010.8 |
| 20260502031830 | 57 | 14 | 7.0 | 18.0 | 0.01 | 1.96 | 1.96 | 100 | 1010.3 |
| 20260502030931 | 57 | 22 | 5.0 | 14.0 | 0.02 | 2.33 | 1.96 | 100 | 1009.6 |
| 20260502030030 | 57 | 23 | 8.0 | 15.0 | 0.03 | 2.33 | 1.96 | 100 | 1009.6 |
| 20260502025131 | 58 | 14 | 6.0 | 14.0 | 0.03 | 2.33 | 1.96 | 100 | 1009.5 |